Location: ??????????
(31.2156°N, 29.9553°E)
Time: 08:12:39
(UTC+00:00)

Cosmos 44 Rocket - Pass Details

Date: 03 March 2021
Orbit: 636 x 754 km, 65.1° (Epoch: 15 April)

Event Time Altitude Azimuth Distance (km) Brightness Sun altitude
Rises 16:45:11 0° 342° (NNW) 3,207 7.0 -10.5°
Reaches altitude 10° 16:47:45 10° 350° (N) 2,278 6.1 -11.0°
Maximum altitude 16:52:35 37° 58° (ENE) 1,152 4.0 -12.0°
Enters shadow 16:56:39 14° 121° (ESE) 2,005 5.2 -12.9°
